Regional Weather Roundup
Issued by NWS Jackson, KY

Home | Current Version | Previous Version | Graphics & Text | Print | Product List | Glossary On
Versions: 1 2 3 4 5 6 7 8 9 10 11 12 13 14 15 16 17 18 19 20 21 22 23 24 25 26 27 28 29 30 31 32 33 34 35 36 37 38 39 40 41 42 43 44 45 46 47 48 49 50
250
ASUS43 KJKL 091010
RWRJKL

EAST KENTUCKY HOURLY WEATHER ROUNDUP
NATIONAL WEATHER SERVICE JACKSON KY
500 AM EST TUE FEB 09 2016

NOTE: "FAIR" INDICATES FEW OR NO CLOUDS BELOW 12,000 FEET WITH
NO SIGNIFICANT WEATHER AND/OR OBSTRUCTIONS TO VISIBILITY.

* THESE REPORTS ARE NOT UNDER NWS QUALITY CONTROL AND MAY NOT
  REPORT WEATHER SUCH AS PRECIPITATION AND FOG.

KYZ079-080-083-085-087-088-110-112-115-119-120-091100
...EASTERN KENTUCKY...

CITY           SKY/WX    TMP DP  RH WIND       PRES   REMARKS
JACKSON        FLURRIES  22  15  75 VRB7G20   29.70R WCI  13
LONDON         LGT SNOW  22  17  81 W8        29.75R WCI  12
SOMERSET*      CLOUDY    21  16  79 W12       29.81R WCI   9
MONTICELLO*    FLURRIES  22  16  78 W14G21    29.81R WCI   9
WILLIAMSBURG*  CLOUDY    23  18  80 CALM      29.77R
MIDDLESBORO*   FLURRIES  24  19  80 NW7       29.76R WCI  16
HARLAN APT*    CLOUDY    25  19  80 W9        29.71R WCI  15
HAZARD APT*    FLURRIES N/A N/A N/A W3        29.72
BLACK MTN*       N/A     14  14 100 NW1         N/A
BIG SANDY*     LGT SNOW  25  21  87 W5        29.69S WCI  19
MOREHEAD APT*  CLOUDY    21  14  73 W8G17     29.75R WCI  12
$$

KYZ035-036-041-042-044-050-067-078-099-091100
...CENTRAL KENTUCKY...

CITY           SKY/WX    TMP DP  RH WIND       PRES   REMARKS
MT STERLING*   CLOUDY    21  18  86 NW8       29.76R WCI  12
DANVILLE*      CLOUDY    21  14  73 W5        29.78R WCI  15
RICHMOND*      CLOUDY    21  16  79 NW14G20   29.76R WCI   8
LEXINGTON      CLOUDY    20  13  74 W10       29.76R WCI   9
FRANKFORT      LGT SNOW  20  15  81 W6        29.76R WCI  12
$$

KYZ091>093-OHZ055-061-077-WVZ005-015-034-035-042-091100
...SOUTHERN OHIO/WEST VIRGINIA...

CITY           SKY/WX    TMP DP  RH WIND       PRES   REMARKS
COVINGTON      LGT SNOW  21  16  81 W7        29.71S WCI  12
COLUMBUS       LGT SNOW  27  23  85 W10       29.61R FOG     WCI  17
DAYTON         LGT SNOW  23  20  88 W13       29.65S FOG     WCI  11
WILMINGTON     LGT SNOW  20  17  88 W16       29.66R FOG     WCI   6
HUNTINGTON     CLOUDY    25  18  74 W12       29.69R WCI  14
CHARLESTON     LGT SNOW  27  23  85 W10       29.65R FOG     WCI  17
PINEVILLE*     FLURRIES  27  21  77 MISG      29.67R
BECKLEY        LGT SNOW  25  20  81 NW8       29.56R WCI  16
$$

VAZ002-007-008-TNZ017-027-036-066-071-091100
...SOUTHWEST VIRGINIA/EAST TENNESSEE...

CITY           SKY/WX    TMP DP  RH WIND       PRES   REMARKS
BRISTOL        LGT SNOW  26  22  84 W8        29.69R FOG     WCI  18
KNOXVILLE      FLURRIES  28  17  63 W9        29.77S WCI  19
OAK RIDGE      CLOUDY    28  17  63 W10G16    29.79R WCI  19
CROSSVILLE     CLOUDY    21  13  71 W8        29.75R WCI  11
NASHVILLE      FLURRIES  27  18  69 NW8       29.85S WCI  19
$$

...KEY TO REMARKS...
VSB - VISIBILITY IN MILES
WCI - WIND CHILL INDEX
HX  - HEAT INDEX

$$




USA.gov is the U.S. government's official web portal to all federal, state and local government web resources and services.